Back to catalog

HULIANWANG DIGUI-166

AliveCommunicationsPO
NORAD 68658·PAYLOAD·🇨🇳 China

Launched Apr 8, 2026 from Taiyuan Satellite Launch Center

Loading…

Next Passes (next 24 hours)

TLE

FreshSource: Space-Track

Epoch: Sep 14, 2026, 13:27 UTC

1 68658U 26076C   26257.56083683  .00000026  00000-0  26669-4 0  9996
2 68658  86.4989  13.6269 0001289 108.3555 251.7719 13.24408408 21204

Track HULIANWANG DIGUI-166 in real time with AllMySat

Download on the App Store